Location: Commissiepolle
(52.8679°N, 5.7941°E)
Time: 12:13:57
(UTC+00:00)

Daily predictions for brighter satellites

Satellite Brightness Start Highest point End
(mag) Time Altitude Azimuth Time Altitude Azimuth Time Altitude Azimuth
ARGOS 4.4 16:47:07 10° E 16:50:54 20° NE 16:54:42 10° N
SL-24 R/B 4.4 16:46:34 10° SSE 16:51:10 82° ENE 16:56:21 10° NNW
Cosmos 1626 Rocket 4.3 16:47:45 10° SSE 16:51:40 32° E 16:55:39 10° NNE
Cosmos 923 Rocket 4.2 16:46:36 10° NNW 16:51:59 83° WSW 16:57:17 10° SSE
Cosmos 2263 Rocket 3.3 16:47:38 10° WSW 16:52:58 40° NW 16:58:18 10° NNE
RESURS DK-1 4.5 16:50:13 10° W 16:53:20 20° NW 16:56:27 10° NNE
Cosmos 1898 Rocket 4.3 16:50:12 10° SSE 16:54:46 31° ESE 16:59:20 10° NE
CZ-4C R/B 2.8 16:51:37 10° NNE 16:54:47 64° ESE 16:57:59 10° S
Cosmos 1626 4.2 16:51:44 10° SW 16:54:57 27° WNW 16:58:11 10° N
TELKOM 3 3.9 16:53:43 10° WSW 16:55:42 36° S 16:57:48 10° ESE
Cosmos 1680 Rocket 3.5 16:50:59 10° NNW 16:56:17 85° ENE 17:01:30 10° SSE
Meteor 2-10 Rocket 4.0 16:53:39 10° NNW 16:59:04 71° W 17:04:14 10° S
Nadezhda 4 Rocket 4.1 16:55:12 10° S 17:01:15 58° E 17:07:17 10° NNE
CZ-4B R/B 2.7 17:00:34 10° NE 17:03:10 21° E 17:05:42 10° SE
NOAA 12 4.4 16:58:45 10° S 17:03:58 73° WSW 17:09:15 10° NNW
Landsat 5 3.2 17:00:36 10° NNE 17:04:30 80° ESE 17:08:19 10° SSW
MOS 1 Rocket 4.2 17:01:22 10° NE 17:04:46 23° E 17:08:12 10° SE
CZ-2D R/B 3.7 17:03:36 10° SE 17:07:10 38° ENE 17:10:45 10° N
Cosmos-2242 3.9 17:04:04 10° N 17:07:47 28° ENE 17:11:30 10° SE
NOSS 3-1 (C) 4.3 17:03:02 10° NW 17:10:16 76° SW 17:18:47 10° SE
NOAA 11 4.4 17:05:50 10° SSE 17:11:21 82° WSW 17:16:53 10° NNW
COSMO-SKYMED 1 3.4 17:08:23 10° NNE 17:12:16 31° E 17:16:08 10° SSE
BREEZE-M DEB (TANK) 2.8 17:12:38 10° WSW 17:14:55 39° S 17:17:08 10° ESE
Aureole 3 2.7 17:12:37 10° NNW 17:15:48 81° W 17:18:46 10° S
Cosmos 1937 Rocket 4.2 17:12:35 10° SSE 17:17:23 36° ESE 17:22:13 10° NE
Okean 1-7 Rocket 3.7 17:14:45 10° SSW 17:19:19 84° W 17:23:56 10° N
USA 290 2.4 17:16:53 10° NNW 17:19:59 45° ENE 17:23:03 10° SE
Cosmos 1833 Rocket 2.6 17:18:07 10° NNW 17:23:46 69° NE 17:29:22 10° SE
NOSS 2-1 (C) 3.4 17:21:37 10° SSW 17:24:47 44° SE 17:27:19 16° ENE
Cosmos 2221 4.3 17:24:35 10° NNE 17:26:48 14° ENE 17:26:48 14° ENE
H-2A R/B 2.1 17:25:13 10° NNE 17:29:40 88° WNW 17:33:58 10° SSW
H-2A R/B 2.4 17:24:55 10° SE 17:29:42 43° ENE 17:34:39 10° N
Cosmos 2344 4.3 17:21:10 10° NW 17:30:03 87° NE 17:42:25 10° SE
NOSS 2-1 (D) 3.2 17:27:29 10° SSW 17:30:42 51° SE 17:33:06 18° ENE
Meteor 1-21 Rocket 4.1 17:25:27 10° S 17:30:59 78° E 17:36:37 10° NNE
USA 229 DEB 4.1 17:24:34 10° NW 17:31:47 75° SW 17:39:25 10° SE
Cosmos 1939 Rocket 3.0 17:27:48 10° SSE 17:31:54 82° WSW 17:35:56 10° NNW
USA 229 4.1 17:24:41 10° NW 17:31:54 76° SW 17:39:32 10° SE
Cosmos 389 Rocket 3.9 17:29:33 10° NNE 17:32:01 18° ENE 17:32:01 18° ENE
Helios 1A Rocket 3.6 17:28:32 10° SE 17:32:14 32° ENE 17:35:57 10° N
SeaSat 1 3.3 17:28:45 10° NNE 17:33:31 49° NW 17:38:15 10° WSW
CZ-3B R/B 2.4 17:31:29 10° WNW 17:33:51 53° SSW 17:39:49 10° SE
CSL-04 DEB 4.5 17:30:12 10° NNE 17:34:18 58° ESE 17:38:17 10° S
Cosmos 44 3.3 17:29:58 10° SW 17:34:52 80° SE 17:39:31 13° NE
Cosmos 1602 Rocket 3.6 17:30:48 10° S 17:35:05 61° E 17:39:27 10° NNE
Cosmos 2026 Rocket 4.1 17:30:32 10° SSE 17:36:29 52° E 17:42:33 10° NNE
Feng Yun 1-1 Rocket 4.3 17:31:45 10° SSE 17:37:16 89° E 17:42:59 10° NNW
SJ 16-02 2.0 17:33:50 10° SW 17:38:09 55° WNW 17:42:29 10° NNE
Cosmos 1689 Rocket 4.1 17:41:34 14° SE 17:41:34 14° SE 17:42:18 10° SE
Cosmos 1553 Rocket 4.2 17:34:10 10° N 17:40:26 51° ENE 17:46:34 10° SSE
YAOGAN 1 2.7 17:37:03 10° SE 17:41:13 48° ENE 17:45:24 10° N
Aureole 3 Rocket 2.3 17:38:20 10° N 17:41:29 68° ENE 17:45:16 10° SSE
Cosmos 990 Rocket 3.9 17:36:26 10° SSW 17:41:38 79° ESE 17:46:50 10° NNE
COSMOS 2406 3.3 17:37:19 10° NNW 17:43:08 83° WSW 17:48:54 10° SSE
Cosmos 1844 Rocket 3.2 17:37:48 10° SW 17:43:24 61° NW 17:49:01 10° NNE
Cosmos 2082 Rocket 2.3 17:37:53 10° NNW 17:43:34 58° NE 17:49:11 10° SE
Cosmos 1818 4.1 17:39:39 10° WSW 17:45:02 58° NW 17:49:56 13° NE
Meteor 1-27 4.3 17:41:50 10° N 17:47:21 53° ENE 17:52:46 10° SSE
NOSS 3-1 (A) 4.3 17:40:08 10° NW 17:47:25 73° SW 17:55:55 10° SSE
Cosmos 1844 4.1 17:41:44 10° SW 17:47:25 68° NW 17:53:12 10° NNE
HJ-1C 4.1 17:47:04 19° ESE 17:48:50 31° ENE 17:51:51 10° N
X-37B 3.1 17:46:54 10° SW 17:49:04 17° SSW 17:51:13 10° SSE
Cosmos 1703 3.2 17:45:12 10° S 17:49:05 86° W 17:53:00 10° N
Cosmos 1825 Rocket 4.0 17:46:08 10° SSE 17:50:12 38° E 17:54:19 10° NNE
deb Kosmos-1763 4.2 17:46:54 10° NNW 17:50:24 46° ENE 17:52:51 17° SE
Cosmos 1812 Rocket 3.8 17:46:15 10° NNW 17:50:39 72° W 17:54:58 10° S
IRS-1C Rocket 4.0 17:45:31 10° SSE 17:50:46 87° ENE 17:56:05 10° NNW
NOSS 2-2 (E) 4.4 17:46:06 10° NW 17:50:57 54° NE 17:56:04 17° ESE
ISS -3.7 17:48:57 10° W 17:52:20 73° S 17:53:50 30° E
ATLAS 2AS CENTAUR R/B 3.8 17:48:34 10° WNW 17:55:47 37° N 18:00:55 17° NE
Okean O Rocket 3.6 17:52:52 10° SSW 17:56:50 32° W 18:00:49 10° NNW
Cosmos 2227 Rocket 4.4 17:55:07 10° NNW 17:57:33 13° N 18:00:00 10° NNE
ATLAS 5 CENTAUR R/B 3.3 17:54:06 10° WNW 17:57:57 26° N 18:00:57 16° NE
Iridium 4 Rocket 3.4 17:53:23 10° N 17:58:54 82° E 18:03:54 10° S
ERS-2 2.3 17:58:38 23° NE 18:00:34 46° E 18:04:04 10° S
SKYMED 2 3.5 17:56:10 10° NNE 18:00:34 84° ESE 18:04:54 10° SSW
CZ-4 R/B 1.2 17:56:51 10° SSE 18:00:52 83° ENE 18:04:49 10° NNW
CSL-04 Rocket 3.7 17:59:58 10° SE 18:05:19 57° ENE 18:10:45 10° N
S3M 4.0 18:00:59 10° N 18:06:59 54° ENE 18:12:58 10° SSE
CZ-4C R/B 3.6 18:02:31 10° WNW 18:08:00 33° N 18:11:46 21° NE
Okean-O 2.5 18:03:55 10° SSE 18:08:21 87° E 18:12:50 10° NNW
USA 234 3.4 18:05:52 24° ENE 18:09:59 63° N 18:16:26 10° WNW
Ariane Rocket 3.9 18:11:25 27° NE 18:11:25 27° NE 18:15:33 10° N
Cosmos 1428 Rocket 4.5 18:05:47 10° S 18:12:06 86° E 18:18:28 10° NNE
Cosmos 1340 3.1 18:08:57 10° SSW 18:12:39 60° WNW 18:16:24 10° N
Cosmos 1346 Rocket 2.7 18:09:16 10° S 18:13:08 58° E 18:15:12 26° NNE
Cosmos 2278 Rocket 2.2 18:08:00 10° SSW 18:13:34 59° ESE 18:17:11 22° NE
Cosmos 1655 Rocket 4.3 18:07:57 10° SSE 18:13:41 41° E 18:19:26 10° NNE
Cosmos 858 Rocket 4.5 18:10:16 10° SSW 18:15:34 90° ESE 18:20:22 13° NNE
Cosmos 1953 Rocket 3.7 18:12:30 10° SSE 18:16:38 45° E 18:17:58 34° NE
CZ-2C R/B 3.9 18:11:37 10° S 18:17:05 58° W 18:22:48 10° NNW
SAR-Lupe-4 3.5 18:17:51 48° NE 18:18:32 60° ESE 18:22:04 10° S
USA 281 4.3 18:17:58 23° NE 18:19:20 25° NE 18:24:26 10° NNW
SWARM A 4.4 18:16:04 10° S 18:18:52 53° SE 18:18:52 53° SE
Cosmos 2297 Rocket 4.3 18:18:55 10° NNW 18:21:12 12° N 18:23:18 10° NNE
Cosmos 2292 Rocket 4.0 18:17:05 10° SSE 18:20:41 38° ESE 18:20:41 38° ESE
Genesis I 4.0 18:18:59 10° NW 18:22:29 34° NNE 18:22:29 34° NNE
COSMOS 2455 4.1 18:17:31 10° W 18:22:59 34° NNW 18:27:33 14° NNE
Cosmos 44 Rocket 4.2 18:19:23 10° S 18:23:19 30° SE 18:23:19 30° SE
NOSS 2-1 (E) 3.3 18:22:36 10° WSW 18:25:54 62° NW 18:26:47 44° NNE
DMSP B5D1-3 4.5 18:22:08 10° NNE 18:27:11 59° ESE 18:32:13 10° S
Cosmos 1842 Rocket 4.2 18:24:01 10° N 18:27:17 37° NE 18:27:17 37° NE
Meteor 2-2 Rocket 4.4 18:22:39 10° N 18:28:32 56° ENE 18:34:20 11° SSE
Cosmos 1869 3.1 18:25:18 10° N 18:29:11 69° ENE 18:30:11 47° SE
NOSS 2-2 (D) 4.2 18:25:31 10° NW 18:30:28 71° NE 18:33:29 33° ESE
ARGOS 3.1 18:25:07 10° SSE 18:30:30 88° ENE 18:35:56 10° NNW
PSLV R/B 3.9 18:28:24 15° NNE 18:31:52 88° ESE 18:36:04 10° SSW
Meteor 2-19 Rocket 4.4 18:26:48 10° S 18:32:58 86° W 18:39:11 10° N
Transit 2A Rocket 4.4 18:29:21 10° NW 18:33:49 64° NE 18:34:18 59° E
SAR-Lupe-1 3.9 18:34:05 63° NNE 18:34:36 89° ESE 18:38:12 10° SSW
CZ-4B R/B 3.1 18:32:27 10° N 18:35:28 32° WNW 18:38:23 10° SW
Cosmos 468 4.5 18:31:12 10° NNW 18:36:29 86° WSW 18:41:13 13° SSE
Cosmos 1898 Rocket 4.3 18:31:34 10° SW 18:36:39 50° WNW 18:41:26 12° NNE
CZ-2C R/B 2.9 18:33:46 25° NE 18:36:48 48° E 18:42:13 10° S
Cosmos 372 Rocket 3.9 18:31:59 10° SSW 18:37:12 79° ESE 18:39:58 29° NNE
Cosmos 2263 Rocket 4.4 18:35:06 10° WNW 18:38:30 16° NNW 18:41:55 10° NNE
Cosmos 494 Rocket 3.8 18:35:17 10° NNW 18:40:28 76° ENE 18:42:29 38° SE
MOS 1 Rocket 4.0 18:39:11 10° N 18:43:19 48° WNW 18:47:27 10° SW
Cosmos-2242 4.4 18:41:27 10° NNW 18:45:27 38° W 18:49:27 10° SSW
Cosmos 1048 Rocket 4.1 18:40:19 10° NNW 18:45:28 75° WSW 18:49:36 16° SSE
Cosmos 2150 Rocket 4.1 18:41:27 10° S 18:45:58 50° SE 18:45:58 50° SE
COSMO-SKYMED 1 4.0 18:44:29 10° N 18:48:30 37° WNW 18:52:30 10° SW
MOS 1 4.4 18:51:16 52° ENE 18:51:33 53° ENE 18:57:06 10° N
Cosmos 909 Rocket 4.2 18:52:22 10° NW 18:58:43 62° NE 19:00:09 51° E
Cosmos 1937 Rocket 4.5 18:54:10 10° SW 18:59:16 46° NW 19:03:18 16° NNE
SL-08 RB Rocket 3.9 18:59:18 21° S 19:02:13 66° WSW 19:06:42 10° NNW
Cosmos 2221 3.4 19:00:46 10° N 19:03:42 41° N 19:03:42 41° N
Cosmos 389 Rocket 4.0 19:03:35 10° NNW 19:05:55 33° NW 19:05:55 33° NW
H-2A R/B 3.6 19:04:35 10° SSW 19:09:14 35° W 19:14:02 10° NNW
Cosmos 1809 Rocket 4.3 19:05:30 10° S 19:11:38 88° E 19:17:51 10° NNE
Cosmos 2298 Rocket 3.9 19:08:26 10° SSW 19:13:35 84° S 19:13:35 84° S
Cosmos 2266 Rocket 3.8 19:09:34 10° S 19:15:48 86° E 19:21:57 10° N
SJ 16-02 4.2 19:15:58 10° WNW 19:17:46 12° NW 19:19:34 10° NNW
In-Cosmos 22 Rocket 4.4 19:19:48 10° SSW 19:25:34 73° WNW 19:29:35 20° N
Cosmos 2082 Rocket 3.8 19:22:23 10° NW 19:27:24 32° WSW 19:32:22 10° SSW
ISS -0.9 19:25:44 10° W 19:26:49 18° W 19:26:49 18° W
Cosmos 1269 Rocket 4.4 19:24:51 10° NNW 19:29:03 57° NNW 19:29:03 57° NNW
NOSS 3-4 (A) 4.2 19:24:22 10° NW 19:30:38 46° NNE 19:30:38 46° NNE
NOSS 3-4 (C) 4.2 19:24:28 10° NW 19:30:44 45° NNE 19:30:44 45° NNE
Cosmos 1241 Rocket 4.4 19:27:07 10° SW 19:33:16 78° S 19:33:16 78° S
ATLAS 5 CENTAUR R/B 3.6 19:39:38 10° NW 19:42:29 25° NNW 19:42:29 25° NNW
Cosmos 2227 Rocket 4.3 19:40:46 10° NNW 19:42:53 15° N 19:42:53 15° N
Cosmos 2315 Rocket 4.3 19:38:30 10° NNW 19:44:40 63° W 19:46:33 44° SSW
ATLAS 2AS CENTAUR R/B 3.4 19:41:07 10° NW 19:48:21 45° NNE 19:48:21 45° NNE
Ariane Rocket 4.1 19:51:36 40° NW 19:51:36 40° NW 19:55:02 10° NNW
USA 234 3.2 19:53:13 77° NNW 19:53:13 77° NNW 19:59:23 10° WNW
CZ-4C R/B 3.3 19:51:34 10° NW 19:56:58 47° N 19:56:58 47° N
Cosmos 2278 Rocket 3.5 19:52:46 10° WSW 19:57:59 36° NW 19:59:05 33° NNW
USA 281 3.8 20:04:50 48° N 20:04:50 48° N 20:09:30 10° NNW
Cosmos 2297 Rocket 4.4 20:03:27 10° NNW 20:05:07 16° N 20:05:07 16° N
CZ-2C R/B 4.1 20:11:55 10° N 20:16:58 36° WNW 20:22:03 10° SW
